Regional Weather Roundup
Issued by NWS

Home | Current Version | Previous Version | Graphics & Text | Print | Product List | Glossary On
Versions: 1 2 3 4 5 6 7 8 9 10 11 12 13 14 15 16 17 18 19 20 21 22 23 24 25 26 27 28 29 30 31 32 33 34 35 36 37 38 39 40 41 42 43 44 45 46 47 48 49 50
000
ASUS43 KLOT 241003
RWRIL

ILLINOIS REGIONAL WEATHER ROUNDUP
NATIONAL WEATHER SERVICE CHICAGO/ROMEOVILLE IL
500 AM CDT TUE MAY 24 2016

NOTE: "FAIR" INDICATES FEW OR NO CLOUDS BELOW 12,000 FEET WITH NO
SIGNIFICANT WEATHER AND/OR OBSTRUCTIONS TO VISIBILITY.

* THESE STATIONS ARE NOT UNDER NWS QUALITY CONTROL. THEY ALSO MAY NOT
  REPORT WEATHER SUCH AS PRECIPITATION OR FOG.

ILZ001-002-007-009-015-016-024-241100-
NORTHWEST ILLINOIS

CITY           SKY/WX    TMP DP  RH WIND       PRES   REMARKS
MOLINE         MOCLDY    63  51  65 CALM      29.92R
STERLING*      PTCLDY    58  50  75 CALM      29.94F
$$

ILZ003-004-008-010-011-017-018-241100-
NORTH CENTRAL ILLINOIS

CITY           SKY/WX    TMP DP  RH WIND       PRES   REMARKS
ROCKFORD       CLOUDY    60  49  66 CALM      29.97S
FREEPORT*      PTCLDY    55  47  77 S8        29.95S
ROCHELLE*      CLOUDY    57  48  73 S8        29.95F
DE KALB*       CLOUDY    56  49  76 S6        29.97S
$$

ILZ005-006-012>014-019>023-241100-
NORTHEAST ILLINOIS

CITY           SKY/WX    TMP DP  RH WIND       PRES   REMARKS
CHICAGO-OHARE  CLOUDY    64  46  52 SW5       29.96R
CHICAGO-MIDWAY CLOUDY    66  43  43 SW8       29.97R
AURORA         CLOUDY    56  48  74 E3        29.97R
LANSING*       CLEAR     56  44  64 SW3       29.99R
WAUKEGAN       CLEAR     60  46  59 SW6       29.96R
DUPAGE AIRPORT CLOUDY    57  46  66 S5        29.97R
WHEELING       CLOUDY    63  46  54 S6        29.98R
MORRIS*        CLEAR     61  47  59 CALM      29.96R
NORTHERLY ISL    N/A     67  41  38 S7          N/A
NORTHERLY ISL    N/A     67  41  38 S7          N/A
$$

LMZ740>746-241100-
SOUTHERN LAKE MICHIGAN

STATION/POSITION SKY/WX   TEMP    WIND        PRES    VSBY  WAVE
                          AIR SEA DIR/SP/G                  HT/PER
                          (F)     (DEG/KT/KT) (MB)    (MI)  (FT/S)
SOUTHERN BUOY              54 48  170/ 12/ 14 1013.8          1
WILMETTE HARBOR            63 55  230/ 12/ 14   N/A           1/ 2
HARRISON CRIB              69     210/ 19/ 21   N/A
BURNHAM HARBOR             67     200/  4/  9   N/A
CALUMET HARBOR             64     190/  5/  9 1014.3R
BURNS HARBOR               64     190/ 10/ 16 1015.6R
MICHIGAN CITY              65     160/ 14/ 17   N/A
MICHIGAN CITY 6N           60 56  190/  6/  8   N/A           1
ST. JOSEPH                 60 56  180/  8/  8   N/A           1
$$

ILZ025>027-034>036-040-047-049-050-058-095>099-241100-
WEST-CENTRAL ILLINOIS

CITY           SKY/WX    TMP DP  RH WIND       PRES   REMARKS
QUINCY         MOCLDY    63  54  72 S3        29.94R
MACOMB*        MOCLDY    63  54  73 S7        29.97R
PITTSFIELD*    PTCLDY    62  56  83 SE3       29.96S
$$

ILZ028>032-037-038-041>044-048-051>054-059>061-241100-
CENTRAL ILLINOIS

CITY           SKY/WX    TMP DP  RH WIND       PRES   REMARKS
BLOOMINGTON    PTCLDY    61  53  74 S9        29.99S
DECATUR        PTCLDY    61  50  67 S7        29.99S
PEORIA         PTCLDY    61  51  70 CALM      29.97R
LINCOLN*       CLOUDY    60  55  84 S3        29.98R
SPRINGFIELD    CLOUDY    61  54  77 S8        29.97S
TAYLORVILLE    NOT AVBL
$$

ILZ033-039-045-046-055>057-062-063-241100-
EAST-CENTRAL ILLINOIS

CITY           SKY/WX    TMP DP  RH WIND       PRES   REMARKS
CHAMPAIGN      PTCLDY    59  47  64 S6        30.00S
MATTOON        CLOUDY    60  48  64 S6        30.00F
$$

ILZ079-100>102-241100-
SOUTHWEST ILLINOIS

CITY           SKY/WX    TMP DP  RH WIND       PRES   REMARKS
ALTON          CLOUDY    59  55  88 CALM      29.97S
CAHOKIA*       CLOUDY    65  56  72 CALM      29.97S
SPARTA*        CLOUDY    67  55  65 S6        30.01R
$$

ILZ064>066-069>071-074>076-080>082-084>086-088>090-092>094-241100-
SOUTH-CENTRAL ILLINOIS

CITY           SKY/WX    TMP DP  RH WIND       PRES   REMARKS
CARBONDALE     CLOUDY    61  59  93 CALM      30.00S
CAIRO*         CLOUDY    62  60  94 CALM      30.01R
EFFINGHAM*     CLOUDY    56  54  94 E5        30.02S
MT. VERNON     PTCLDY    54  48  82 NE3       30.01S
SALEM*         CLOUDY    63  53  70 SE5       29.99F
$$

ILZ067-068-072-073-078-083-087-091-241100-
SOUTHEAST ILLINOIS

CITY           SKY/WX    TMP DP  RH WIND       PRES   REMARKS
LAWRENCEVILLE  PTCLDY    55  52  89 SE3       30.03S
FLORA*         PTCLDY    57  54  91 CALM      30.01F
HARRISBURG*    CLOUDY    59  56  91 CALM      30.02S
ROBINSON*      CLEAR     50  50  98 CALM      30.04S
CARMI*         PTCLDY    59  54  83 CALM      30.02S
$$

ABBREVIATIONS USED IN REMARKS
   TC - TEMPERATURE IN CELSIUS
  WCI - WIND CHILL INDEX
   HX - HEAT INDEX
  VSB - VISIBILITY
$$




USA.gov is the U.S. government's official web portal to all federal, state and local government web resources and services.